GFSCGP_sfc_dewp_057.txt.gz
Dewpoint
27 23 22 22 23 19 19 19 18 20 24 25 24 23 24 25 25 25 25 26 26 27 28 30 32 34 37 42 44 46 47 48 47 47 46 46 46 44 44 45 46 47 47 47
24 22 24 24 23 23 22 21 21 22 25 24 24 24 25 25 25 25 25 25 26 26 27 29 30 33 36 39 44 45 47 46 47 48 44 43 41 38 39 39 40 42 45 44
23 23 27 25 24 22 22 21 21 20 24 25 24 23 24 25 26 26 26 26 26 26 26 27 29 31 35 40 43 45 46 45 46 46 36 35 34 35 34 35 34 34 38 39
25 27 26 25 24 23 21 24 23 23 23 20 24 16 22 22 22 24 25 26 26 27 27 28 28 30 33 37 42 45 46 45 45 39 40 40 41 38 37 37 33 31 34 32
22 27 27 25 24 25 23 27 25 25 24 24 24 21 21 24 22 23 24 25 26 27 28 28 29 30 31 37 43 44 45 44 44 40 42 42 41 37 35 32 29 29 29 29
25 29 28 27 28 26 29 27 27 28 25 21 22 19 11 19 21 21 23 24 26 27 28 28 30 31 32 38 42 44 44 44 40 40 40 42 41 32 32 30 28 27 27 25
27 27 29 29 27 28 27 24 19 17 21 20 23 20 13 18 21 23 21 21 25 28 29 29 29 30 34 39 42 43 44 43 39 39 39 40 36 34 33 29 28 25 24 23
21 17 27 28 25 26 26 24 19 12 13 13 24 21 21 25 26 25 24 25 28 30 30 30 29 30 35 39 41 42 43 43 38 38 37 36 35 34 32 30 28 26 24 21
19 19 27 28 28 25 26 24 23 17 13 18 16 18 17 24 24 28 29 29 29 30 30 30 30 30 35 39 40 42 42 43 38 37 36 34 33 32 31 27 25 23 22 19
22 19 27 27 28 29 25 27 23 23 13 12 14 15 15 19 22 23 25 27 28 30 30 30 29 30 35 38 40 42 43 42 38 37 34 32 31 30 28 24 23 21 20 18
26 25 24 28 26 25 26 25 25 24 23 16 13 13 21 19 20 22 24 28 29 30 30 30 29 31 35 38 39 41 41 40 36 35 33 31 30 27 25 24 22 20 19 18
29 28 23 23 28 28 27 24 24 21 18 22 21 16 23 25 25 28 28 28 29 30 30 29 29 31 34 36 38 40 40 37 35 33 32 30 28 25 24 23 21 20 17 17
30 31 22 27 27 27 26 26 26 26 25 20 20 19 25 27 26 28 29 29 29 29 29 28 28 30 32 34 36 38 38 37 34 31 30 29 26 24 24 22 20 18 17 17
36 34 29 25 24 27 26 26 26 25 25 22 22 20 20 24 25 26 27 28 28 29 29 27 27 28 30 32 34 35 36 35 33 30 29 28 26 25 24 22 19 18 17 16
38 33 34 32 30 27 27 26 27 25 25 24 24 23 23 24 25 25 26 28 28 29 29 29 28 28 27 29 31 33 33 33 32 30 29 28 27 25 23 22 20 18 17 15
39 33 35 33 33 33 28 28 28 27 26 26 25 25 26 26 26 26 27 27 27 28 29 30 30 28 27 27 29 30 31 32 31 30 30 28 26 25 24 23 21 18 17 17
37 34 32 30 32 32 29 32 30 28 28 27 25 26 28 28 28 28 29 30 30 30 31 31 31 30 28 26 27 28 30 30 30 31 30 28 26 25 24 22 20 18 17 17
34 32 33 31 31 24 32 34 34 32 31 31 29 30 31 31 32 33 32 32 32 32 32 32 32 31 29 29 27 28 29 28 28 29 29 27 26 25 24 22 20 18 17 17
36 34 30 29 29 29 29 31 30 32 32 33 33 33 32 33 31 32 33 34 33 34 34 34 34 33 31 28 27 27 27 27 27 27 27 27 26 25 23 22 21 19 19 19
31 34 30 29 25 23 26 29 33 33 29 33 34 34 33 33 31 32 34 33 34 33 34 33 33 33 31 27 26 26 26 25 25 26 26 26 26 25 24 23 22 23 22 21
29 32 30 31 28 31 33 28 32 30 28 25 30 34 32 33 34 34 32 33 32 31 31 31 29 29 28 25 26 25 24 24 26 26 25 25 25 25 25 24 24 24 24 25
23 25 27 29 29 26 30 30 30 32 27 26 29 31 31 33 32 31 30 30 30 29 30 27 25 23 22 25 25 24 23 24 24 24 24 24 25 25 26 25 25 26 26 25
25 30 31 32 32 36 35 34 36 33 34 29 29 29 29 30 30 29 28 28 28 28 28 25 23 22 22 22 23 23 23 23 23 23 23 24 26 27 27 27 26 26 27 26
29 31 31 30 27 30 31 33 30 30 28 27 30 30 29 29 28 26 27 28 28 25 24 22 22 22 21 21 22 23 23 23 24 25 26 27 27 28 28 28 28 27 27 26
24 28 27 26 28 30 31 33 34 34 31 27 26 28 27 27 26 26 26 24 24 23 22 22 21 22 21 23 24 26 28 29 28 28 27 28 28 28 28 27 28 27 28 27
29 27 26 23 28 31 31 29 28 30 31 29 22 22 22 22 24 24 24 24 23 25 22 22 21 22 22 22 22 24 27 28 26 25 26 26 27 26 24 24 21 24 25 28

GFSCGP_sfc_dewp_063.txt.gz
Dewpoint
28 21 18 17 17 15 16 14 13 11 21 23 19 17 16 17 18 18 19 21 21 21 24 27 30 34 42 46 46 48 49 50 51 51 52 53 54 55 58 60 60 61 60 60
23 21 19 23 23 22 19 16 14 15 22 23 19 17 18 19 19 19 19 19 19 20 22 27 30 33 37 41 44 44 44 45 47 49 51 51 52 52 54 56 56 57 57 58
16 18 23 24 22 20 19 17 14 14 22 23 22 17 15 14 18 21 21 22 21 22 21 23 30 33 38 39 42 43 43 44 46 48 49 50 50 51 51 51 52 52 53 54
21 21 24 24 20 19 14 15 20 18 19 12 21 8 10 10 10 14 18 22 21 23 24 25 27 33 37 39 41 42 43 44 45 48 48 50 48 47 49 51 50 48 49 50
18 26 26 23 19 22 19 25 22 23 24 23 20 17 10 10 9 13 14 19 21 23 25 26 30 33 34 40 43 43 43 43 45 47 48 49 47 48 50 51 49 48 47 48
25 29 26 23 27 24 28 27 26 27 24 16 16 13 8 6 5 6 14 17 22 23 27 28 32 36 36 41 44 45 43 43 44 47 48 48 47 48 51 50 50 46 44 42
24 25 28 29 27 28 26 22 15 16 23 16 19 17 13 12 12 15 15 18 20 26 27 30 32 34 35 38 42 43 42 41 44 45 46 48 47 48 50 49 47 45 43 40
23 20 25 28 24 22 26 21 18 17 15 15 25 18 13 18 18 23 24 24 26 27 29 31 33 36 36 38 40 40 41 41 42 44 46 46 47 47 49 49 47 44 44 43
18 19 26 27 25 20 24 23 23 23 30 21 13 13 12 19 21 21 19 20 24 27 32 33 34 34 36 37 39 40 40 41 42 43 45 45 46 47 48 48 49 47 45 44
21 18 24 27 28 27 24 23 22 21 26 19 11 12 12 19 16 16 20 23 25 29 32 33 34 36 36 36 39 40 40 41 42 42 44 44 45 47 48 47 47 46 46 41
24 23 26 27 25 21 23 22 23 21 21 19 17 13 13 13 17 21 25 29 30 31 33 33 33 34 35 37 39 40 40 41 42 43 43 44 45 45 46 46 44 42 41 35
27 25 25 22 24 25 22 20 20 21 21 20 21 19 18 19 20 26 27 27 31 33 33 33 33 34 34 37 38 39 40 41 42 43 43 43 44 44 43 43 41 39 36 33
31 31 31 30 29 28 25 23 23 23 28 30 27 21 19 19 21 25 27 27 30 33 33 33 32 31 31 33 36 38 39 41 43 42 42 42 43 43 42 42 40 37 33 30
37 37 33 27 24 27 27 26 26 24 25 25 24 22 21 22 23 23 26 30 29 30 32 30 34 31 31 32 33 35 37 39 42 42 42 42 42 41 41 41 38 34 31 29
37 33 36 35 33 32 32 32 29 26 25 24 24 24 24 24 25 25 26 27 26 26 28 30 34 36 34 33 34 34 35 38 40 41 41 41 41 40 40 39 37 33 31 28
37 32 34 31 30 30 31 33 34 32 29 27 26 25 26 26 27 27 29 29 28 29 30 31 31 34 35 34 34 33 34 36 39 40 40 39 39 39 38 36 33 30 28 26
34 34 32 26 28 29 30 33 32 33 33 31 27 28 30 29 29 30 31 32 32 31 31 32 32 33 36 37 35 34 34 36 39 39 39 38 38 38 36 34 30 28 26 24
33 32 31 27 26 21 26 24 30 32 33 34 34 34 33 33 33 34 34 35 34 34 33 34 36 36 37 39 39 37 38 37 38 38 38 37 37 35 33 31 29 28 26 24
29 28 26 23 21 21 22 26 26 28 26 29 32 33 34 35 35 34 34 35 35 36 36 39 39 38 36 37 37 36 35 36 36 36 36 36 35 33 32 30 29 27 26 25
26 27 27 25 21 16 16 20 23 23 27 33 34 33 34 34 31 33 37 38 37 37 37 37 38 36 35 35 33 33 33 34 34 34 34 35 34 33 32 31 30 29 29 26
29 30 25 25 23 26 27 26 27 26 30 37 36 36 36 32 33 36 37 36 37 37 35 34 34 31 30 27 31 31 32 32 33 33 34 33 33 32 32 31 30 29 28 25
16 22 24 27 24 22 36 34 29 32 35 33 31 33 35 37 36 34 33 34 34 34 33 32 31 29 25 28 31 31 29 30 31 31 31 31 31 31 31 30 29 29 26 25
17 17 19 23 23 34 35 37 40 38 35 33 34 35 36 36 36 36 34 33 31 31 30 30 28 27 26 28 30 30 28 29 29 29 27 29 30 30 30 29 28 27 26 25
22 24 25 24 24 25 27 29 29 31 37 36 37 37 38 37 35 34 35 36 32 32 30 29 28 27 27 28 27 28 28 28 27 27 28 28 28 29 29 29 28 28 26 26
20 19 23 24 23 24 29 31 29 30 34 33 33 34 34 33 32 33 32 32 31 30 29 28 28 27 27 28 28 28 28 28 28 28 28 29 29 29 28 28 28 27 28 28
20 18 17 19 21 23 24 25 27 32 31 32 33 32 32 31 30 29 29 29 29 29 28 27 26 26 25 26 25 28 30 30 28 27 27 28 29 29 29 28 29 33 32 33

GFSCGP_sfc_dewp_069.txt.gz
Dewpoint
29 22 19 20 20 17 17 17 16 15 23 23 22 22 22 22 19 18 22 24 24 23 24 24 27 32 45 50 55 58 58 59 60 60 59 58 59 59 59 61 63 64 63 63
24 20 23 23 23 21 19 18 16 18 25 21 20 19 20 21 19 18 17 18 21 23 23 23 26 30 38 46 51 57 58 58 59 59 60 59 57 55 58 56 58 63 63 63
23 22 25 23 23 21 21 17 16 16 21 20 20 17 18 19 22 21 20 20 21 21 21 22 23 29 33 40 48 52 57 58 58 58 55 52 52 51 53 53 54 57 60 61
25 26 23 23 21 20 18 23 20 19 18 13 22 13 20 16 13 12 16 19 20 22 23 22 22 27 32 36 43 48 54 56 56 55 54 54 54 54 54 56 56 53 55 58
21 23 23 24 22 22 20 26 22 23 22 24 22 17 17 18 11 11 11 13 18 22 24 24 25 26 32 35 40 45 48 51 53 53 53 53 53 52 47 48 49 50 50 53
25 29 27 24 29 25 28 26 26 27 23 16 19 14 12 9 9 10 13 17 22 24 36 33 37 33 35 37 39 43 44 44 46 50 49 50 50 47 46 46 48 48 47 50
27 26 28 29 25 28 25 18 14 17 20 13 19 16 12 12 14 13 15 17 20 25 29 26 27 29 36 38 39 40 42 43 44 45 46 47 48 47 47 47 48 47 49 49
25 23 26 28 24 24 25 19 16 12 18 17 20 16 15 18 16 17 19 19 22 26 27 29 30 32 33 34 40 42 41 41 43 44 46 47 47 48 47 47 49 48 48 48
24 24 27 28 27 24 24 22 24 20 16 19 17 17 16 21 17 14 18 24 28 30 33 33 34 33 35 36 38 40 41 41 41 43 44 46 47 47 47 46 48 49 47 46
25 21 27 28 27 26 24 25 22 23 12 12 14 13 14 17 16 23 25 25 26 31 33 33 34 35 37 38 37 39 40 40 41 42 43 44 46 47 46 46 46 47 45 45
28 25 25 26 25 23 24 23 23 23 23 17 14 13 15 16 23 22 24 26 27 30 33 32 34 34 35 36 38 39 40 40 40 41 42 43 44 45 45 46 45 45 44 43
30 28 24 23 26 26 24 22 23 21 18 21 21 15 22 22 24 25 25 25 28 30 32 33 33 34 33 35 36 38 39 40 41 41 41 42 43 43 44 45 45 43 44 42
33 28 19 23 27 29 24 24 22 23 25 20 18 17 20 22 24 28 27 27 26 29 29 32 32 32 32 33 35 37 39 40 40 41 41 42 42 42 43 43 43 42 41 39
39 33 25 21 29 34 31 34 36 33 22 22 21 20 21 27 28 28 28 28 28 29 30 30 31 30 31 32 32 34 37 39 40 41 41 41 41 42 42 42 41 40 38 37
37 32 34 33 33 35 36 35 35 33 34 31 29 33 33 34 33 30 28 30 30 31 32 33 33 33 32 33 34 33 34 37 39 40 40 41 41 40 40 39 38 37 35 35
37 29 32 29 31 33 29 32 33 31 32 33 32 32 33 31 30 31 31 32 34 35 35 36 35 35 34 33 34 35 35 35 37 39 39 40 38 37 36 36 36 35 34 32
33 31 29 16 26 26 21 26 25 25 25 25 24 26 29 30 31 34 35 35 35 35 36 36 37 37 37 37 37 37 37 36 34 34 34 34 35 34 35 35 34 34 32 30
33 30 29 13 15 5 19 22 22 25 27 28 29 30 33 35 34 34 35 34 34 34 35 36 36 35 35 36 36 34 33 32 32 32 31 31 32 33 32 32 33 31 30 29
32 29 24 17 5 14 14 14 14 14 10 13 17 29 32 31 32 30 34 34 35 35 35 36 36 34 34 33 29 29 29 30 30 31 32 32 31 31 30 30 30 27 26 25
33 29 22 2 3 4 12 14 16 18 17 31 30 30 29 30 27 29 32 33 36 35 35 35 33 33 32 30 28 27 28 28 29 30 31 31 31 31 31 30 26 24 23 25
23 25 23 21 18 17 21 21 24 15 16 32 33 32 30 28 30 31 33 35 36 35 34 34 33 31 31 28 27 26 27 27 29 29 29 29 29 27 26 24 24 23 23 24
19 19 15 22 19 16 24 25 25 28 29 32 32 32 31 32 32 33 34 33 34 34 34 34 32 32 29 27 26 25 26 27 26 26 26 27 24 26 25 21 22 27 26 26
10 19 16 19 17 24 23 22 29 34 28 29 32 31 32 32 32 32 32 32 32 32 32 32 30 28 28 25 25 24 27 27 24 24 25 23 19 21 20 21 27 27 26 25
20 20 18 17 17 18 23 26 25 29 29 29 31 30 30 30 30 29 30 31 31 31 29 27 26 26 25 23 24 22 25 24 19 22 23 20 20 19 18 24 25 25 25 24
18 19 18 19 20 21 21 22 23 24 24 23 22 28 28 28 27 26 29 29 29 28 25 23 24 23 22 21 24 26 25 23 24 23 21 18 19 18 19 22 21 21 20 24
18 14 14 12 17 19 19 21 22 21 21 21 24 24 23 25 26 28 27 27 25 24 23 21 20 18 18 17 16 16 22 23 18 22 25 23 26 25 24 24 26 27 27 28

GFSCGP_sfc_dewp_072.txt.gz
Dewpoint
29 20 19 19 19 15 17 16 15 15 23 22 21 22 22 22 22 21 20 21 22 23 24 24 26 30 44 49 52 55 57 59 60 60 60 61 61 62 63 64 64 64 63 62
23 16 19 22 21 20 18 17 15 17 24 21 19 19 20 20 20 19 19 18 19 21 23 24 24 27 34 43 50 54 57 59 60 60 61 61 61 58 60 60 62 64 63 62
19 19 23 24 23 20 19 17 15 14 20 19 23 13 14 15 22 20 20 20 19 19 20 21 22 24 29 36 47 51 56 58 59 60 58 53 52 52 54 54 59 62 63 62
24 26 23 22 20 19 17 20 20 19 17 12 20 9 17 16 14 14 13 12 15 19 21 22 22 22 26 31 39 48 54 58 58 59 59 58 58 57 57 59 58 55 58 62
22 23 22 22 20 20 17 25 20 21 20 22 20 15 14 17 13 11 10 14 22 24 23 24 27 27 26 30 35 44 51 56 57 58 58 58 58 58 53 50 52 51 53 56
23 28 25 22 28 23 26 24 24 27 20 12 16 9 8 7 8 10 13 19 20 25 25 25 27 30 32 35 36 42 48 50 53 55 55 56 56 53 47 47 49 49 50 55
26 26 28 27 25 27 23 15 12 13 16 11 17 15 13 13 13 13 16 19 23 27 28 30 31 31 32 32 37 39 43 45 47 51 52 51 53 50 49 48 49 47 47 48
23 22 26 27 24 24 22 15 15 8 14 13 19 15 13 19 16 17 18 24 28 30 33 33 34 34 32 35 35 40 40 41 43 45 47 48 49 50 49 48 48 48 49 49
25 23 27 28 27 24 24 20 19 18 14 18 15 16 15 18 17 19 25 26 27 29 32 32 34 34 35 36 36 38 40 41 41 42 44 45 46 47 48 46 47 48 47 46
27 22 27 27 26 27 22 25 21 22 9 10 12 13 12 15 21 23 25 25 26 29 31 32 33 34 35 37 37 38 39 40 41 41 42 44 45 46 46 46 46 47 46 44
26 25 25 26 24 23 24 22 22 23 21 15 13 13 16 17 22 24 25 27 27 29 30 33 33 33 34 35 36 38 38 39 40 40 41 42 43 44 45 46 46 46 45 44
29 26 23 22 25 25 24 23 23 20 17 21 21 18 20 23 25 28 28 28 28 29 30 30 32 33 33 33 34 36 38 39 40 40 41 41 42 43 43 44 45 44 44 42
30 28 22 24 26 29 23 28 24 24 25 20 17 19 23 27 32 31 31 29 28 30 31 31 32 33 33 33 33 33 35 37 39 40 40 41 41 41 42 42 42 42 42 40
37 32 25 22 27 31 30 31 34 27 21 21 20 19 19 30 34 34 33 31 30 31 32 35 36 36 36 35 33 33 33 35 38 39 40 40 40 41 41 41 41 40 40 39
36 28 31 33 33 33 33 32 33 32 31 28 28 31 31 32 33 32 31 32 34 36 36 36 36 37 37 37 37 37 37 37 36 37 38 39 40 40 39 38 37 37 37 38
36 30 31 28 31 33 30 31 32 32 32 32 32 31 31 30 30 32 35 35 34 34 35 36 36 36 35 35 35 35 36 36 35 34 34 36 36 35 35 35 35 35 35 34
33 31 26 19 26 23 17 25 31 29 29 26 24 26 28 31 34 33 33 33 34 34 35 35 36 35 34 35 35 34 32 32 31 31 32 32 32 32 33 34 34 34 33 33
29 25 21 14 15 13 19 21 23 27 26 26 27 29 32 33 32 33 35 33 33 34 34 35 36 35 34 34 33 30 30 29 29 30 30 30 31 31 31 31 31 32 31 31
31 28 22 15 7 15 18 16 15 17 16 22 20 28 29 29 28 29 34 34 34 35 35 36 36 35 34 33 32 28 28 29 28 29 29 29 30 30 30 30 30 29 27 25
32 30 24 10 14 6 12 17 14 17 10 30 30 30 30 28 24 26 29 33 34 35 35 35 35 34 33 33 29 27 27 27 27 28 28 29 29 27 28 29 30 28 23 27
27 28 25 17 18 16 19 20 23 12 13 29 29 29 27 27 28 29 32 33 33 33 34 34 34 34 33 32 28 26 26 26 27 27 27 27 27 26 26 24 23 21 21 23
20 20 16 21 20 15 23 24 19 21 27 29 29 30 29 31 31 31 31 30 28 30 30 31 31 30 30 28 26 25 25 26 25 25 25 26 24 27 28 20 19 21 27 27
14 19 16 19 19 23 23 26 27 29 25 27 30 30 29 29 29 29 29 27 26 29 30 29 27 26 26 24 22 24 25 24 24 22 23 23 23 25 23 23 26 27 27 26
19 19 18 16 17 19 21 24 26 25 30 28 28 27 26 26 27 28 28 27 26 28 27 24 22 23 24 21 22 22 24 24 19 19 20 20 21 21 20 26 26 27 26 25
17 20 18 18 19 20 20 21 24 23 23 23 24 24 23 25 26 25 25 26 27 27 25 21 22 23 23 20 19 16 21 24 24 19 19 20 18 16 20 20 20 20 21 25
19 17 16 15 19 18 17 19 21 21 21 22 24 24 24 25 25 26 27 26 25 26 23 21 20 19 20 16 15 14 11 17 23 23 25 25 19 20 24 25 26 28 27 27

GFSCGP_sfc_dewp_075.txt.gz
Dewpoint
28 20 16 18 16 11 16 15 14 15 23 22 21 21 22 22 22 21 21 21 21 22 23 24 24 29 45 49 51 54 57 59 61 61 61 62 62 63 63 63 63 62 62 61
21 17 18 20 21 19 17 16 15 16 23 22 20 19 20 21 20 20 19 18 19 19 20 22 25 25 31 40 49 51 54 57 60 61 61 61 62 62 63 63 63 63 63 62
15 17 21 21 20 19 18 16 15 13 19 17 18 10 11 13 20 19 19 20 18 19 19 20 21 22 25 30 41 49 52 54 58 59 59 54 54 53 57 59 62 63 63 62
21 24 21 22 21 19 18 19 18 17 16 7 19 3 14 15 16 14 12 12 17 21 21 23 25 26 25 25 31 42 49 54 57 58 59 59 59 59 58 60 60 61 62 62
19 23 22 21 20 19 18 23 19 20 19 21 18 13 12 13 10 8 19 20 23 25 25 26 27 30 31 34 32 36 47 53 55 57 59 59 58 59 55 54 55 55 58 61
23 28 23 21 27 22 26 21 21 25 17 10 14 7 5 5 7 12 17 23 27 28 31 32 33 33 32 34 37 39 43 49 53 55 56 57 58 56 51 49 52 51 55 58
25 25 28 27 24 26 19 12 10 10 14 8 17 13 10 11 13 15 20 26 28 31 32 33 33 33 33 35 35 39 41 43 49 52 53 53 55 54 52 50 51 48 49 51
21 19 26 27 23 23 19 13 12 5 10 9 19 15 12 19 18 20 24 26 27 29 32 32 33 34 35 36 36 37 39 39 42 45 49 50 50 51 51 49 49 50 50 51
21 17 27 27 26 24 22 16 17 17 13 16 13 15 13 20 23 25 26 27 27 29 31 31 32 34 35 36 36 37 38 39 40 41 43 45 46 47 48 48 47 49 48 47
25 22 27 27 26 26 22 24 18 20 8 7 11 11 10 23 25 27 27 27 27 29 30 31 32 33 34 34 35 36 37 38 39 40 41 42 43 45 46 46 46 46 46 45
27 26 24 26 24 23 23 22 22 21 20 15 12 13 16 24 27 27 28 28 28 28 30 31 32 33 34 34 34 34 35 37 39 39 40 41 42 43 44 45 45 45 44 44
28 26 24 24 25 26 24 22 21 20 17 20 20 17 23 27 28 30 30 29 29 30 31 32 33 34 35 34 34 34 35 36 37 39 40 40 41 41 42 42 43 43 43 42
30 27 23 25 26 28 23 27 24 23 24 20 18 18 23 29 32 33 32 31 31 33 36 36 36 36 36 36 36 36 36 36 37 37 38 39 39 40 40 41 41 41 41 41
36 31 26 23 25 28 29 32 31 23 21 20 20 18 22 25 31 31 32 34 35 35 36 35 36 36 35 35 35 35 36 36 35 35 36 37 38 39 40 40 39 39 39 39
35 32 33 33 33 32 31 32 33 29 26 20 26 28 29 31 30 32 35 34 33 34 35 35 36 36 35 34 35 34 34 33 33 32 32 32 35 36 36 36 35 35 35 37
37 32 33 31 32 33 30 31 30 31 31 32 31 30 31 30 33 32 34 32 32 32 33 35 35 35 35 34 34 34 33 31 31 30 30 31 31 31 32 32 32 33 33 33
33 30 28 25 27 28 25 26 30 30 31 28 24 25 30 33 33 30 33 32 32 33 33 34 35 35 35 35 34 34 32 31 30 30 30 30 30 30 30 31 31 31 32 32
29 27 26 21 20 17 22 21 23 29 28 28 27 27 30 30 30 31 33 31 32 33 33 34 35 35 35 34 34 33 31 30 30 29 29 28 29 29 29 29 30 30 30 30
31 28 21 21 9 17 18 18 16 20 16 23 26 26 28 29 27 28 33 33 32 32 33 34 35 35 34 34 33 30 29 29 28 28 28 28 28 27 27 28 29 29 28 28
31 28 23 11 8 7 13 16 16 13 8 17 22 28 28 27 23 26 32 31 31 32 31 32 32 33 32 32 31 29 28 27 27 27 27 27 27 26 26 28 28 26 22 27
28 27 25 15 14 15 20 19 19 6 8 26 29 30 27 25 26 27 30 30 31 30 29 30 31 31 31 30 28 27 27 26 27 26 25 25 25 24 25 25 22 21 22 23
24 22 21 23 20 15 21 20 15 18 28 30 29 28 28 28 28 28 27 28 27 26 27 29 29 28 28 27 26 25 25 26 24 24 23 23 22 23 25 21 20 19 20 20
18 21 18 21 21 23 25 25 25 26 26 27 27 30 24 23 22 23 25 26 26 25 27 29 26 26 25 23 22 23 24 23 24 22 21 22 21 22 22 18 20 25 26 26
19 20 20 19 21 22 22 23 26 28 29 27 26 24 23 22 22 22 25 26 25 25 25 24 22 22 23 23 21 20 21 23 24 23 23 22 22 22 20 21 21 23 26 26
16 19 18 18 19 20 21 24 25 24 22 21 21 22 22 22 23 25 24 25 26 26 23 20 21 22 22 22 20 14 18 13 16 22 23 23 25 23 21 20 19 19 19 21
19 18 15 14 19 19 18 23 22 22 21 22 23 23 24 25 25 25 25 24 23 22 21 20 19 18 19 17 16 13 8 7 9 14 20 24 26 25 21 19 20 27 30 31